User: anonymous   Login
Location: Unspecified
(0.0000°N, 0.0000°E)
Time: 09:22:34
(UTC+00:00)
Language:

TELEOS 1 - Orbit

View from above orbital plane
View from above orbital plane
View from above satellite
View from above satellite

Ground track
Ground track

The orbit data is extracted from the following two-line orbital elements,

1 41169U 15077D   18019.16179781  .00001304  00000-0  38687-4 0  9994
2 41169  14.9726  45.8388 0010651  97.2259 312.2225 15.09725388115647
Epoch (UTC): 19 January 2018 03:52:59
Eccentricity: 0.0010651
inclination: 14.9726°
perigee height: 529 km
apogee height: 544 km
right ascension of ascending node: 45.8388°
argument of perigee: 97.2259°
revolutions per day: 15.09725388
mean anomaly at epoch: 312.2225°
orbit number at epoch: 11564

The dashed part of the orbit path shows where the satellite is in the earth's shadow,  

DLR